Regional Weather Roundup
Issued by NWS Little Rock, AR

Home | Current Version | Previous Version | Graphics & Text | Print | Product List | Glossary On
Versions: 1 2 3 4 5 6 7 8 9 10 11 12 13 14 15 16 17 18 19 20 21 22 23 24 25 26 27 28 29 30 31 32 33 34 35 36 37 38 39 40 41 42 43 44 45 46 47 48
000
ASUS44 KLZK 281105
RWRLZK

WEATHER ROUNDUP FOR ARKANSAS
NATIONAL WEATHER SERVICE LITTLE ROCK AR
500 AM CST WED JAN 28 2015

NOTE: "FAIR" INDICATES FEW OR NO CLOUDS BELOW 12,000 FEET WITH NO
SIGNIFICANT WEATHER AND/OR OBSTRUCTIONS TO VISIBILITY.

ARZ001-003-010-029-281200-
NORTHWEST ARKANSAS

CITY           SKY/WX    TMP DP  RH WIND       PRES   REMARKS
FAYETTEVILLE   CLEAR     39  30  70 S6        30.08F
FORT SMITH     CLEAR     42  35  76 E9        30.13S
HARRISON       CLEAR     38  33  82 SE12      30.13S
BENTONVILLE    CLEAR     43  28  56 SE8       30.07F
ROGERS         CLEAR     42  32  67 SE10      30.08S
SILOAM SPGS    CLEAR     46  28  49 S8        30.08S
HIGHFILL       CLEAR     40  30  67 S7        30.06F
$$

ARZ004-005-016-281200-
NORTH CENTRAL ARKANSAS

CITY           SKY/WX    TMP DP  RH WIND       PRES   REMARKS
BATESVILLE     CLEAR     34  28  80 SE3       30.23S
FLIPPIN        CLEAR     36  30  80 E5        30.17S
MTN HOME       CLEAR     36  33  89 SE8       30.17S
$$

ARZ040-041-281200-
WEST CENTRAL ARKANSAS

CITY           SKY/WX    TMP DP  RH WIND       PRES   REMARKS
MENA           CLEAR     36  34  93 CALM      30.15S
MOUNT IDA      CLEAR     33  30  88 CALM      30.14S
$$

ARZ009-017-025-026-028-281200-
NORTHEAST ARKANSAS

CITY           SKY/WX    TMP DP  RH WIND       PRES   REMARKS
CORNING        FAIR      32  30  93 CALM      30.27R
JONESBORO      CLEAR     31  30  96 E7        30.25R WCI  24
NEWPORT        CLEAR     32  31  96 NE6       30.25S WCI  26
WALNUT RIDGE   CLEAR     32  27  80 E6        30.24S WCI  26
BLYTHEVILLE    CLEAR     31  28  89 E9        30.25F WCI  23
$$

ARZ022-023-033-042-044-281200-
CENTRAL ARKANSAS

CITY           SKY/WX    TMP DP  RH WIND       PRES   REMARKS
LITTLE ROCK    CLEAR     38  34  85 CALM      30.21S
N LITTLE ROCK    N/A     40  37  91 E6        30.21S
JACKSONVILLE   CLEAR     32  29  89 CALM      30.21R
SEARCY         CLEAR     35  33  92 NE5       30.24S WCI  31
HOT SPRINGS    CLEAR     42  35  76 E7        30.19R
RUSSELLVILLE   CLEAR     44  36  73 VRB7      30.17S
CLINTON        FAIR      28  28 100 CALM      30.23S
$$

ARZ036-281200-
EAST ARKANSAS

CITY           SKY/WX    TMP DP  RH WIND       PRES   REMARKS
WEST MEMPHIS   CLEAR     35  31  85 SE6       30.25R WCI  30
$$

ARZ050-053-066-070-073-281200-
SOUTHWEST ARKANSAS

CITY           SKY/WX    TMP DP  RH WIND       PRES   REMARKS
ARKADELPHIA    FAIR      40  37  89 NE6       30.20R
CAMDEN         CLEAR     36  32  87 CALM      30.19R
TEXARKANA      CLEAR     44  38  79 VRB5      30.14S
EL DORADO      CLEAR     39  35  86 CALM      30.18S
DE QUEEN       CLEAR     41  36  82 E6        30.13S
$$

ARZ056-057-069-281200-
SOUTHEAST ARKANSAS

CITY           SKY/WX    TMP DP  RH WIND       PRES   REMARKS
PINE BLUFF     CLEAR     37  35  92 CALM      30.21S
STUTTGART      CLEAR     39  34  81 E7        30.22S
MONTICELLO     CLEAR     38  34  85 E5        30.21R

$$





USA.gov is the U.S. government's official web portal to all federal, state and local government web resources and services.